DW2150 Weather Reports


Display with metric or nautical units.
time (UTC)temp
F
wind
direction
speed
MPH
gust
MPH
rain 1hr
in
rain 24hr
in
rain mn
in
humidity
%
barometer
mb
20260831232152 90 97 0.0 1.0 0.00 0.00 0.00 75 1013.9
20260831231649 90 97 0.0 2.0 0.00 0.00 0.00 74 1013.9
20260831231127 91 97 0.0 2.0 0.00 0.00 0.00 74 1013.9
20260831230624 91 97 0.0 2.0 0.00 0.00 0.00 74 1013.9
20260831230121 91 97 1.0 3.0 0.00 0.00 0.00 74 1014.2
20260831225617 91 98 1.0 3.0 0.00 0.00 0.00 75 1014.2
20260831225012 91 98 1.0 3.0 0.00 0.00 0.00 76 1014.2
20260831224509 91 100 1.0 2.0 0.00 0.00 0.00 75 1013.9
20260831224005 91 322 1.0 2.0 0.00 0.00 0.00 75 1014.2
20260831223431 90 253 0.0 1.0 0.00 0.00 0.00 76 1014.2
20260831222859 90 253 1.0 1.0 0.00 0.00 0.00 77 1014.2
20260831222356 90 253 0.0 1.0 0.00 0.00 0.00 77 1014.2
20260831221853 90 248 0.0 1.0 0.00 0.00 0.00 77 1014.2
20260831221349 89 248 0.0 1.0 0.00 0.00 0.00 78 1014.2
20260831220813 89 248 0.0 1.0 0.00 0.00 0.00 78 1014.2
20260831220239 89 248 0.0 1.0 0.00 0.00 0.00 79 1014.2
20260831215634 88 248 0.0 1.0 0.00 0.00 0.00 79 1014.2
20260831215131 88 248 0.0 0.0 0.00 0.00 0.00 79 1014.6
20260831214628 88 248 0.0 3.0 0.00 0.00 0.00 79 1014.6
20260831214125 89 248 0.0 4.0 0.00 0.00 0.00 79 1014.6
20260831213551 89 248 0.0 4.0 0.00 0.00 0.00 79 1014.6
20260831213049 89 248 0.0 4.0 0.00 0.00 0.00 79 1014.6
20260831212545 88 248 2.0 4.0 0.00 0.00 0.00 79 1014.9
20260831212042 88 247 1.0 2.0 0.00 0.00 0.00 80 1014.9
20260831211539 88 247 1.0 2.0 0.00 0.00 0.00 80 1014.9
20260831211036 87 247 0.0 9.0 0.00 0.00 0.00 80 1014.9
20260831210533 87 246 0.0 9.0 0.00 0.00 0.00 80 1014.9
20260831210030 87 252 1.0 9.0 0.00 0.00 0.00 79 1015.2
20260831205456 88 257 4.0 9.0 0.00 0.00 0.00 78 1015.2
20260831204953 88 253 3.0 7.0 0.00 0.00 0.00 80 1015.2
20260831204450 88 269 1.0 4.0 0.00 0.00 0.00 80 1015.6
20260831203827 87 259 1.0 3.0 0.00 0.00 0.00 82 1015.6
20260831203253 87 258 1.0 3.0 0.00 0.00 0.00 81 1015.6
20260831202750 88 259 1.0 5.0 0.00 0.00 0.00 81 1015.6
20260831202246 88 15 2.0 15.0 0.00 0.00 0.00 80 1015.6
20260831201742 89 67 1.0 16.0 0.00 0.00 0.00 78 1015.6
20260831201239 91 76 2.0 16.0 0.00 0.00 0.00 78 1015.6
20260831200705 93 75 3.0 4.0 0.00 0.00 0.00 74 1015.6
20260831200144 93 265 1.0 3.0 0.00 0.00 0.00 72 1015.6
20260831195640 94 265 1.0 4.0 0.00 0.00 0.00 71 1015.6
20260831195106 95 302 1.0 9.0 0.00 0.00 0.00 69 1015.6
20260831194501 95 349 1.0 9.0 0.00 0.00 0.00 67 1015.6
20260831193958 95 33 2.0 9.0 0.00 0.00 0.00 66 1015.6
20260831193455 95 70 3.0 9.0 0.00 0.00 0.00 65 1015.6
20260831192921 95 344 2.0 6.0 0.00 0.00 0.00 65 1015.6
20260831192418 96 359 1.0 6.0 0.00 0.00 0.00 66 1015.6
20260831191915 96 101 2.0 6.0 0.00 0.00 0.00 66 1015.9
20260831191340 96 262 1.0 5.0 0.00 0.00 0.00 66 1015.9
20260831190806 97 83 3.0 5.0 0.00 0.00 0.00 62 1015.9
20260831190303 97 57 1.0 5.0 0.00 0.00 0.00 63 1015.9
20260831185759 97 48 1.0 5.0 0.00 0.00 0.00 62 1015.9
20260831185257 97 11 3.0 5.0 0.00 0.00 0.00 63 1015.9
20260831184753 96 329 2.0 3.0 0.00 0.00 0.00 66 1015.9
20260831184250 96 349 1.0 3.0 0.00 0.00 0.00 67 1016.3
20260831183747 95 3 1.0 3.0 0.00 0.00 0.00 67 1016.3
20260831183244 95 48 1.0 6.0 0.00 0.00 0.00 68 1016.3
20260831182741 94 307 1.0 6.0 0.00 0.00 0.00 70 1016.3
20260831182237 93 338 1.0 6.0 0.00 0.00 0.00 69 1016.3
20260831181703 94 16 1.0 4.0 0.00 0.00 0.00 67 1016.3
20260831181158 94 112 1.0 3.0 0.00 0.00 0.00 69 1016.6
20260831180656 94 37 1.0 3.0 0.00 0.00 0.00 68 1016.6
20260831180153 94 18 1.0 4.0 0.00 0.00 0.00 69 1016.6
20260831175648 93 3 2.0 4.0 0.00 0.00 0.00 68 1016.6
20260831175144 93 42 1.0 6.0 0.00 0.00 0.00 68 1016.6
20260831174539 93 7 2.0 6.0 0.00 0.00 0.00 73 1016.6
20260831174036 92 278 1.0 6.0 0.00 0.00 0.00 73 1016.6
20260831173533 92 18 3.0 6.0 0.00 0.00 0.00 73 1016.6
20260831173030 92 74 2.0 5.0 0.00 0.00 0.00 74 1016.9
20260831172527 92 28 2.0 6.0 0.00 0.00 0.00 73 1016.9
20260831171954 93 54 2.0 7.0 0.00 0.00 0.00 73 1016.9
20260831171418 93 23 2.0 7.0 0.00 0.00 0.00 74 1016.9
20260831170915 92 22 1.0 5.0 0.00 0.00 0.00 76 1016.9
20260831170412 92 9 1.0 3.0 0.00 0.00 0.00 74 1016.9
20260831165909 91 309 2.0 3.0 0.00 0.00 0.00 76 1016.9
20260831165406 91 290 1.0 7.0 0.00 0.00 0.00 77 1016.9
20260831164843 91 266 1.0 7.0 0.00 0.00 0.00 75 1016.9
20260831164340 91 24 1.0 7.0 0.00 0.00 0.00 77 1017.3
20260831163835 91 52 2.0 7.0 0.00 0.00 0.00 76 1017.3
20260831163313 91 26 2.0 7.0 0.00 0.00 0.00 77 1016.9
20260831162810 90 52 1.0 6.0 0.00 0.00 0.00 80 1016.9
20260831162205 89 23 2.0 6.0 0.00 0.00 0.00 81 1016.9
20260831161702 88 285 2.0 3.0 0.00 0.00 0.00 83 1016.9
20260831161159 88 266 2.0 3.0 0.00 0.00 0.00 83 1017.3
20260831160656 88 148 1.0 5.0 0.00 0.00 0.00 83 1017.3
20260831160154 88 65 1.0 5.0 0.00 0.00 0.00 83 1017.3
20260831155650 87 86 1.0 5.0 0.00 0.00 0.00 85 1017.3
20260831155148 87 87 2.0 5.0 0.00 0.00 0.00 84 1016.9
20260831154645 87 27 2.0 3.0 0.00 0.00 0.00 84 1016.9
20260831154142 86 28 0.0 5.0 0.00 0.00 0.00 84 1017.3
20260831153639 86 19 1.0 5.0 0.00 0.00 0.00 85 1017.3
20260831153104 86 77 1.0 5.0 0.00 0.00 0.00 85 1016.9
20260831152602 86 35 2.0 5.0 0.00 0.00 0.00 86 1016.9
20260831152058 85 25 1.0 6.0 0.00 0.00 0.00 87 1016.9
20260831151524 85 58 3.0 6.0 0.00 0.00 0.00 87 1016.9
20260831151003 85 350 2.0 3.0 0.00 0.00 0.00 88 1016.9
20260831150500 84 17 1.0 3.0 0.00 0.00 0.00 88 1016.9
20260831145957 84 48 1.0 2.0 0.00 0.00 0.00 88 1016.9
20260831145454 84 44 1.0 2.0 0.00 0.00 0.00 89 1016.9
20260831144951 83 65 0.0 2.0 0.00 0.00 0.00 88 1016.9
20260831144416 83 68 0.0 2.0 0.00 0.00 0.00 89 1016.9
20260831143912 83 73 1.0 2.0 0.00 0.00 0.00 89 1016.9
20260831143338 82 347 0.0 0.0 0.00 0.00 0.00 89 1016.9
20260831142835 82 344 0.0 0.0 0.00 0.00 0.00 90 1016.9
20260831142333 82 344 0.0 0.0 0.00 0.00 0.00 90 1016.9
20260831141811 82 344 0.0 1.0 0.00 0.00 0.00 91 1016.9
20260831141308 81 344 0.0 1.0 0.00 0.00 0.00 91 1016.9
20260831140805 81 344 0.0 1.0 0.00 0.00 0.00 92 1016.9
20260831140302 81 344 0.0 1.0 0.00 0.00 0.00 93 1016.9
20260831135759 80 344 0.0 1.0 0.00 0.00 0.00 93 1016.9
20260831135256 80 344 1.0 1.0 0.00 0.00 0.00 94 1016.6
20260831134752 79 344 1.0 1.0 0.00 0.00 0.00 94 1016.6
20260831134248 79 342 0.0 0.0 0.00 0.00 0.00 94 1016.6
20260831133744 79 342 0.0 0.0 0.00 0.00 0.00 94 1016.6
20260831133240 79 342 0.0 0.0 0.00 0.00 0.00 94 1016.3
20260831132705 79 342 0.0 0.0 0.00 0.00 0.00 93 1016.3
20260831132203 79 342 0.0 0.0 0.00 0.00 0.00 94 1016.3
20260831131700 79 342 0.0 0.0 0.00 0.00 0.00 94 1016.3
20260831131156 79 342 0.0 0.0 0.00 0.00 0.00 94 1016.3
20260831130653 79 342 0.0 0.0 0.00 0.00 0.00 94 1016.3
20260831130150 79 342 0.0 0.0 0.00 0.00 0.00 94 1015.9
20260831125647 79 342 0.0 0.0 0.00 0.00 0.00 94 1015.9
20260831125125 79 342 0.0 0.0 0.00 0.00 0.00 93 1015.9
20260831124622 79 342 0.0 0.0 0.00 0.00 0.00 93 1015.9
20260831124119 79 342 0.0 0.0 0.00 0.00 0.00 93 1015.9
20260831123527 79 342 0.0 0.0 0.00 0.00 0.00 93 1015.6
20260831123024 79 342 0.0 0.0 0.00 0.00 0.00 94 1015.6
20260831122521 79 342 0.0 0.0 0.00 0.00 0.00 94 1015.6
20260831121916 79 342 0.0 0.0 0.00 0.00 0.00 94 1015.6
20260831121412 79 342 0.0 0.0 0.00 0.00 0.00 94 1015.6
20260831120852 78 342 0.0 0.0 0.00 0.00 0.00 93 1015.6
20260831120327 78 342 0.0 0.0 0.00 0.00 0.00 93 1015.2
20260831115808 79 342 0.0 0.0 0.00 0.00 0.00 93 1015.6
20260831115259 79 342 0.0 0.0 0.00 0.00 0.00 93 1015.6
20260831114755 79 342 0.0 0.0 0.00 0.00 0.00 93 1015.2
20260831114203 79 342 0.0 1.0 0.00 0.00 0.00 93 1015.2
20260831113558 79 342 0.0 1.0 0.00 0.00 0.00 94 1015.2
20260831113054 79 342 0.0 1.0 0.00 0.00 0.00 94 1015.2
20260831112520 79 342 0.0 1.0 0.00 0.00 0.00 94 1015.2
20260831112008 79 342 0.0 1.0 0.00 0.00 0.00 94 1015.2
20260831111446 78 342 0.0 1.0 0.00 0.00 0.00 93 1015.2
20260831110942 78 342 0.0 0.0 0.00 0.00 0.00 93 1015.2
20260831110440 78 342 0.0 0.0 0.00 0.00 0.00 93 1014.9
20260831105937 78 342 0.0 0.0 0.00 0.00 0.00 93 1014.9
20260831105433 78 342 0.0 0.0 0.00 0.00 0.00 93 1014.9
20260831104900 78 342 0.0 0.0 0.00 0.00 0.00 93 1014.9
20260831104326 78 342 0.0 0.0 0.00 0.00 0.00 93 1015.2
20260831103823 79 342 0.0 0.0 0.00 0.00 0.00 93 1015.2
20260831103320 78 342 0.0 0.0 0.00 0.00 0.00 93 1015.2
20260831102758 78 342 0.0 0.0 0.00 0.00 0.00 93 1015.2
20260831102254 78 342 0.0 0.0 0.00 0.00 0.00 93 1015.2
20260831101750 78 342 0.0 0.0 0.00 0.00 0.00 93 1015.2
20260831101134 78 342 0.0 0.0 0.00 0.00 0.00 93 1015.2
20260831100612 78 342 0.0 0.0 0.00 0.00 0.00 92 1015.2
20260831100107 78 342 0.0 0.0 0.00 0.00 0.00 93 1015.2
20260831095532 78 342 0.0 0.0 0.00 0.00 0.00 92 1015.2
20260831095029 79 342 0.0 0.0 0.00 0.00 0.00 92 1015.2
20260831094353 79 342 0.0 0.0 0.00 0.00 0.00 92 1015.2
20260831093851 79 342 0.0 0.0 0.00 0.00 0.00 92 1015.2
20260831093348 79 342 0.0 0.0 0.00 0.00 0.00 92 1015.2
20260831092845 79 342 0.0 0.0 0.00 0.00 0.00 92 1015.2
20260831092342 79 342 0.0 0.0 0.00 0.00 0.00 92 1015.2
20260831091808 79 342 0.0 0.0 0.00 0.00 0.00 92 1015.2
20260831091234 79 342 0.0 0.0 0.00 0.00 0.00 92 1014.9
20260831090731 79 342 0.0 0.0 0.00 0.00 0.00 92 1014.9
20260831090139 79 342 0.0 0.0 0.00 0.00 0.00 92 1014.9
20260831085636 79 342 0.0 0.0 0.00 0.00 0.00 92 1014.9
20260831085133 79 342 0.0 0.0 0.00 0.00 0.00 92 1014.9
20260831084630 79 342 0.0 0.0 0.00 0.00 0.00 92 1015.2
20260831084127 79 342 0.0 0.0 0.00 0.00 0.00 92 1015.2
20260831083624 79 342 0.0 0.0 0.00 0.00 0.00 92 1015.2
20260831083121 79 342 0.0 0.0 0.00 0.00 0.00 92 1015.2
20260831082618 79 342 0.0 0.0 0.00 0.00 0.00 92 1015.2
20260831082045 79 342 0.0 0.0 0.00 0.00 0.00 92 1015.2
20260831081523 79 342 0.0 0.0 0.00 0.00 0.00 92 1015.2
20260831081020 79 342 0.0 0.0 0.00 0.00 0.00 92 1015.2
20260831080459 79 342 0.0 0.0 0.00 0.00 0.00 92 1015.6
20260831075951 79 342 0.0 0.0 0.00 0.00 0.00 91 1015.6
20260831075446 79 342 0.0 0.0 0.00 0.00 0.00 91 1015.2
20260831074944 79 342 0.0 0.0 0.00 0.00 0.00 91 1015.6
20260831074441 79 342 0.0 0.0 0.00 0.00 0.00 91 1015.6
20260831073938 79 342 0.0 0.0 0.00 0.00 0.00 91 1015.6
20260831073353 79 342 0.0 0.0 0.00 0.00 0.00 91 1015.2
20260831072800 79 342 0.0 0.0 0.00 0.00 0.00 91 1015.6
20260831072257 79 342 0.0 0.0 0.00 0.00 0.00 91 1015.2
20260831071735 79 342 0.0 0.0 0.00 0.00 0.00 91 1015.6
20260831071232 79 342 0.0 0.0 0.00 0.00 0.00 91 1015.6
20260831070658 79 342 0.0 0.0 0.00 0.00 0.00 91 1015.6
20260831070124 79 342 0.0 0.0 0.00 0.00 0.00 90 1015.6
20260831065559 79 342 0.0 0.0 0.00 0.00 0.00 90 1015.6
20260831065057 80 342 0.0 0.0 0.00 0.00 0.00 90 1015.6
20260831064554 80 342 0.0 0.0 0.00 0.00 0.00 90 1015.6
20260831064051 80 342 0.0 0.0 0.00 0.00 0.00 90 1015.6
20260831063548 80 342 0.0 0.0 0.00 0.00 0.00 90 1015.6
20260831063027 80 342 0.0 0.0 0.00 0.00 0.00 89 1015.6
20260831062524 80 342 0.0 0.0 0.00 0.00 0.00 90 1015.6
20260831062021 80 342 0.0 0.0 0.00 0.00 0.00 90 1015.9
20260831061518 80 342 0.0 0.0 0.00 0.00 0.00 90 1015.9
20260831060944 80 342 0.0 0.0 0.00 0.00 0.00 89 1015.6
20260831060440 80 342 0.0 0.0 0.00 0.00 0.00 89 1015.9
20260831055919 80 342 0.0 0.0 0.00 0.00 0.00 89 1015.6
20260831055358 80 342 0.0 0.0 0.00 0.00 0.00 89 1015.6
20260831054855 80 342 0.0 0.0 0.00 0.00 0.00 89 1015.6
20260831054352 80 342 0.0 0.0 0.00 0.00 0.00 89 1015.6
20260831053848 80 342 0.0 0.0 0.00 0.00 0.00 89 1015.6
20260831053243 80 342 0.0 0.0 0.00 0.00 0.00 89 1015.6
20260831052740 80 342 0.0 0.0 0.00 0.00 0.00 88 1015.6
20260831052236 80 342 0.0 0.0 0.00 0.00 0.00 88 1015.6
20260831051702 80 342 0.0 0.0 0.00 0.00 0.00 88 1015.6
20260831051159 80 342 0.0 0.0 0.00 0.00 0.00 88 1015.6
20260831050657 80 342 0.0 0.0 0.00 0.00 0.00 88 1015.6
20260831050134 81 342 0.0 0.0 0.00 0.00 0.00 88 1015.6
20260831045609 81 342 0.0 0.0 0.00 0.00 0.00 88 1015.6
20260831045105 81 342 0.0 0.0 0.00 0.00 0.00 87 1015.6
20260831044547 81 342 0.0 0.0 0.00 0.00 0.00 87 1015.6
20260831044013 81 342 0.0 0.0 0.00 0.00 0.00 87 1015.6
20260831043439 81 342 0.0 0.0 0.00 0.00 0.00 87 1015.6
20260831042936 81 342 0.0 0.0 0.00 0.00 0.00 87 1015.6
20260831042433 81 342 0.0 0.0 0.00 0.00 0.00 87 1015.6
20260831041929 81 342 0.0 0.0 0.00 0.00 0.00 86 1015.6
20260831041427 81 342 0.0 0.0 0.00 0.00 0.00 86 1015.6
20260831040717 81 342 0.0 0.0 0.00 0.00 0.00 86 1015.6
20260831040137 81 342 0.0 0.0 0.00 0.00 0.00 86 1015.6
20260831035634 81 342 0.0 0.0 0.00 0.00 0.00 86 1015.2
20260831035131 81 342 0.0 0.0 0.00 0.00 0.00 86 1015.2
20260831034628 82 342 0.0 1.0 0.00 0.00 0.00 85 1015.2
20260831034126 82 342 0.0 1.0 0.00 0.00 0.00 85 1015.2
20260831033623 82 342 0.0 1.0 0.00 0.00 0.00 85 1015.2
20260831033120 82 342 1.0 1.0 0.00 0.00 0.00 85 1015.2
20260831032617 82 342 0.0 0.0 0.00 0.00 0.00 85 1015.2
20260831032043 82 342 0.0 0.0 0.00 0.00 0.00 85 1015.2
20260831031521 82 342 0.0 0.0 0.00 0.00 0.00 84 1015.2
20260831030959 82 342 0.0 0.0 0.00 0.00 0.00 84 1015.2
20260831030456 83 342 0.0 0.0 0.00 0.00 0.00 84 1015.2
20260831025953 83 342 0.0 0.0 0.00 0.00 0.00 84 1014.9
20260831025450 83 342 0.0 0.0 0.00 0.00 0.00 83 1014.9
20260831024916 83 342 0.0 0.0 0.00 0.00 0.00 83 1014.9
20260831024406 83 342 0.0 0.0 0.00 0.00 0.00 83 1014.9
20260831023903 83 342 0.0 0.0 0.00 0.00 0.00 83 1014.9
20260831023400 83 342 0.0 0.0 0.00 0.00 0.00 82 1014.6
20260831022823 84 342 0.0 0.0 0.00 0.00 0.00 82 1014.6
20260831022237 84 342 0.0 0.0 0.00 0.00 0.00 82 1014.6
20260831021734 84 342 0.0 0.0 0.00 0.00 0.00 81 1014.6
20260831021212 84 342 0.0 0.0 0.00 0.00 0.00 81 1014.2
20260831020710 84 342 0.0 0.0 0.00 0.00 0.00 81 1014.2
20260831020148 84 342 0.0 0.0 0.00 0.00 0.00 81 1014.2
20260831015626 85 342 0.0 0.0 0.00 0.00 0.00 81 1014.2
20260831015123 85 342 0.0 0.0 0.00 0.00 0.00 80 1014.2
20260831014620 85 342 0.0 0.0 0.00 0.00 0.00 80 1014.2
20260831014117 85 342 0.0 0.0 0.00 0.00 0.00 79 1014.2
20260831013614 85 342 0.0 0.0 0.00 0.00 0.00 79 1014.2
20260831013110 86 342 0.0 1.0 0.00 0.00 0.00 78 1014.2
20260831012608 86 342 0.0 1.0 0.00 0.00 0.00 78 1014.2
20260831012104 86 342 0.0 1.0 0.00 0.00 0.00 77 1013.9
20260831011530 86 342 1.0 1.0 0.00 0.00 0.00 77 1014.2
20260831011027 86 342 0.0 1.0 0.00 0.00 0.00 77 1013.9
20260831010524 87 342 0.0 1.0 0.00 0.00 0.00 76 1013.9
20260831010002 87 342 0.0 2.0 0.00 0.00 0.00 76 1013.9
20260831005459 87 342 0.0 2.0 0.00 0.00 0.00 76 1013.9
20260831004957 87 342 0.0 2.0 0.00 0.00 0.00 75 1013.9
20260831004453 87 342 0.0 2.0 0.00 0.00 0.00 74 1013.9
20260831003951 88 343 0.0 2.0 0.00 0.00 0.00 74 1013.9
20260831003448 88 344 0.0 2.0 0.00 0.00 0.00 74 1013.9
20260831002945 88 344 0.0 2.0 0.00 0.00 0.00 73 1013.9
20260831002442 89 344 0.0 2.0 0.00 0.00 0.00 73 1013.9
20260831001938 89 344 0.0 2.0 0.00 0.00 0.00 73 1013.9
20260831001434 89 22 1.0 1.0 0.00 0.00 0.00 71 1013.9
20260831000913 90 22 0.0 1.0 0.00 0.00 0.00 71 1013.9
20260831000325 90 22 0.0 1.0 0.00 0.00 0.00 71 1014.2
20260830235821 90 22 0.0 2.0 0.00 0.00 0.00 70 1013.9
20260830235311 91 22 1.0 2.0 0.00 0.00 0.00 69 1013.9
20260830234755 91 22 0.0 2.0 0.00 0.00 0.00 68 1013.9
20260830234202 92 24 1.0 3.0 0.00 0.00 0.00 68 1013.9
20260830233640 92 123 1.0 3.0 0.00 0.00 0.00 67 1013.9
20260830233047 92 124 1.0 3.0 0.00 0.00 0.00 66 1013.9
20260830232544 92 272 1.0 3.0 0.00 0.00 0.00 66 1013.9